Location: Unspecified
(50.7693°N, 0.0000°E)
Time: 18:19:20
(UTC+00:00)

Transit 2A - Pass Details

Date: 27 June 2019
Orbit: 594 x 965 km, 66.7° (Epoch: 15 July)

Event Time Altitude Azimuth Distance (km) Brightness Sun altitude
Rises 08:00:16 0° 320° (NW) 3,460 9.0 36.2°
Reaches altitude 10° 08:02:56 10° 316° (NW) 2,462 8.3 36.6°
Maximum altitude 08:08:22 50° 242° (WSW) 980 6.7 37.5°
Drops below altitude 10° 08:13:14 10° 168° (SSE) 2,203 8.7 38.3°
Sets 08:15:30 0° 163° (SSE) 3,064 9.4 38.6°
